Regional Weather Roundup
Issued by NWS

Home | Current Version | Previous Version | Text Only | Print | Product List | Glossary On
Versions: 1 2 3 4 5 6 7 8 9 10 11 12 13 14 15 16 17 18 19 20 21 22 23 24 25 26 27 28 29 30 31 32 33 34 35 36 37 38 39 40 41 42 43 44 45 46 47 48 49 50
574
ASUS44 KLIX 231401
RWRLA
LOUISIANA WEATHER ROUNDUP
NATIONAL WEATHER SERVICE NEW ORLEANS LA
900 AM CDT TUE SEP 23 2014

NOTE: "FAIR" INDICATES FEW OR NO CLOUDS BELOW 12,000 FEET WITH NO
      SIGNIFICANT WEATHER AND/OR OBSTRUCTIONS TO VISIBILITY.
      SKY/WX - SKY CONDITION AND SIGNIFICANT WEATHER.
      TMP - AIR TEMPERATURE.    DP   - DEWPOINT TEMPERATURE.
      RH  - RELATIVE HUMIDITY.  PRES - PRESSURE.
      HX  - HEAT INDEX.         WCI  - WIND CHILL INDEX.

*  THESE STATIONS ARE NOT NWS OR FAA STATIONS AND ARE NOT UNDER
   NWS QUALITY CONTROL.

LAZ040-048-061>063-065-066-069-231500-
SOUTHEAST LOUISIANA

CITY           SKY/WX    TMP DP  RH WIND       PRES   REMARKS
N.O. AUDUBON     N/A     73  58  60 MISG        N/A
N.O. INTL ARPT MOSUNNY   73  57  57 E14       30.10R
N.O. LAKEFRONT SUNNY     72  58  61 E17       30.10R
N.O. DOWNTOWN* FAIR      70  54  56 NE10      30.10S
SLIDELL        SUNNY     69  55  60 NE8       30.11R
BATON ROUGE    SUNNY     68  55  63 NE8       30.13R
BOOTHVILLE     SUNNY     79  66  64 NE13G21   30.07R
BELLE CHASSE   MOSUNNY   73  60  63 NE13      30.09R
BOGALUSA*      FAIR      66  55  66 NE7       30.14R
GALLIANO*      NOT AVBL
NEW ROADS*     FAIR      68  53  58 E8        30.13S
GONZALES*      FAIR      67  57  71 NE8       30.11R
HAMMOND*       NOT AVBL
HOUMA*         SUNNY     72  45  37 NE9       30.08R
PORT FOURCHON* SUNNY     79  66  65 NE14G22   30.09R

$$

LAZ041-044-053-054-231500-
SOUTHWEST LOUISIANA

CITY           SKY/WX    TMP DP  RH WIND       PRES   REMARKS
LAKE CHARLES   SUNNY     68  56  65 NE13      30.11R
LAFAYETTE      SUNNY     67  57  70 NE7       30.12R
PATTERSON      SUNNY     72  61  68 NE13      30.11R
SALT POINT       N/A     73  62  68 VRB5      30.08R
NEW IBERIA     SUNNY     68  57  68 NE10      30.12R
CHENAULT AIRPK NOT AVBL

$$

LAZ027-028-231500-
CENTRAL LOUISIANA

CITY           SKY/WX    TMP DP  RH WIND       PRES   REMARKS
FORT POLK      NOT AVBL
ALEXANDRIA INT SUNNY     66  56  70 NE6       30.14R
ALEXANDRIA     SUNNY     65  56  72 E6        30.16R

$$

LAZ001-002-231500-
NORTHWEST LOUISIANA

CITY           SKY/WX    TMP DP  RH WIND       PRES   REMARKS
SHREVEPORT     MOSUNNY   66  53  63 NE9       30.19R
BARKSDALE AFB  SUNNY     63  53  71 NE7       30.20R
DTN SHREVEPORT SUNNY     63  54  72 NE5       30.20R

$$

LAZ014-016-231500-
NORTHEAST LOUISIANA

CITY           SKY/WX    TMP DP  RH WIND       PRES   REMARKS
MONROE         SUNNY     66  54  65 NE8       30.20R
TALLULAH       SUNNY     65  54  67 NE7       30.18R

$$




USA.gov is the U.S. government's official web portal to all federal, state and local government web resources and services.